Houston, TX

7:20 AM CST on December 11, 2016 (GMT -0600)
Ellington

Weather History for KEFD - January, 2013

Change the Weather History Date:

Saturday, January 5, 2013

  Actual Average Record
Temperature  
Mean Temperature 45 °F -  
Max Temperature 46 °F 63 °F 80 °F (1998)
Min Temperature 44 °F 44 °F 30 °F (1999)
Degree Days  
Heating Degree Days 20    
Moisture  
Dew Point 44 °F    
Average Humidity 95    
Maximum Humidity 100    
Minimum Humidity 71    
Precipitation  
Precipitation 0.00 in - - ()
Sea Level Pressure  
Sea Level Pressure 30.32 in    
Wind  
Wind Speed 6 mph (North)    
Max Wind Speed 10 mph    
Max Gust Speed -    
Visibility 7 miles    
Events Rain    
Averages and records for this station are not official NWS values.
T = Trace of Precipitation, MM = Missing Value Source: NWS Daily Summary

Daily Weather History Graph

Daily Weather History Graph

Search for Another Location

Airport or City:

Trip Planner

Search our weather history database for the weather conditions in past years. The results will help you decide how hot, cold, wet, or windy it might be!

Date:

Astronomy

Jan. 05, 2013 Rise Set
Actual Time 7:16 AM CST 5:36 PM CST
Civil Twilight 6:50 AM CST 6:02 PM CST
Nautical Twilight 6:20 AM CST 6:31 PM CST
Astronomical Twilight 5:51 AM CST 7:00 PM CST
Moon 12:39 AM CST (1/5) 12:13 PM CST (1/5)
Length of Visible Light 11h 11m
Length of Day
10h 19m
Last Quarter, 44% of the Moon is Illuminated
Jan 5
Last Quarter
Jan 11
New
Jan 18
First Quarter
Jan 26
Full
Feb 3
Last Quarter

Hourly Weather History & Observations

Time (CST) Temp. Windchill Dew Point Humidity Pressure Visibility Wind Dir Wind Speed Gust Speed Precip Events Conditions
12:50 AM 46.4 °F 43.5 °F 37.4 °F 71% 30.36 in 10.0 mi NNE 5.8 mph - N/A   Overcast
1:50 AM 44.6 °F 43.1 °F 41.0 °F 87% 30.38 in 10.0 mi ENE 3.5 mph - N/A Rain Light Rain
2:50 AM 44.6 °F 41.4 °F 41.0 °F 87% 30.35 in 10.0 mi NNE 5.8 mph - N/A   Overcast
3:50 AM 44.6 °F 43.1 °F 41.0 °F 87% 30.34 in 10.0 mi NE 3.5 mph - N/A   Overcast
4:50 AM 44.6 °F 40.7 °F 41.0 °F 87% 30.34 in 10.0 mi North 6.9 mph - N/A   Overcast
5:50 AM 44.6 °F 40.7 °F 42.8 °F 93% 30.33 in 7.0 mi North 6.9 mph - N/A Rain Light Rain
6:50 AM 44.6 °F 40.7 °F 42.8 °F 93% 30.36 in 7.0 mi North 6.9 mph - N/A Rain Light Rain
7:50 AM 44.6 °F 40.7 °F 44.6 °F 100% 30.38 in 7.0 mi NNE 6.9 mph - N/A   Overcast
8:50 AM 44.6 °F 40.7 °F 44.6 °F 100% 30.39 in 6.0 mi North 6.9 mph - N/A   Overcast
9:50 AM 44.6 °F 39.7 °F 44.6 °F 100% 30.39 in 6.0 mi North 9.2 mph - N/A   Overcast
10:50 AM 44.6 °F 39.2 °F 44.6 °F 100% 30.36 in 6.0 mi North 10.4 mph - N/A Rain Light Rain
11:50 AM 44.6 °F 40.2 °F 44.6 °F 100% 30.33 in 6.0 mi North 8.1 mph - N/A Rain Light Rain
12:30 PM 44.6 °F 43.1 °F 44.6 °F 100% 30.32 in 4.0 mi NNE 3.5 mph - N/A Rain Light Rain
12:50 PM 44.6 °F 42.2 °F 44.6 °F 100% 30.32 in 3.0 mi NE 4.6 mph - N/A Rain Light Rain
1:50 PM 44.6 °F 40.7 °F 44.6 °F 100% 30.29 in 10.0 mi North 6.9 mph - N/A   Overcast
2:50 PM 44.6 °F 40.7 °F 44.6 °F 100% 30.29 in 10.0 mi North 6.9 mph - N/A Rain Light Rain
3:02 PM 44.6 °F 40.2 °F 44.6 °F 100% 30.29 in 3.0 mi North 8.1 mph - N/A Rain Rain
3:50 PM 46.4 °F 44.3 °F 44.6 °F 93% 30.29 in 4.0 mi North 4.6 mph - N/A Rain Rain
4:50 PM 46.4 °F 43.5 °F 44.6 °F 93% 30.28 in 4.0 mi NNE 5.8 mph - N/A   Overcast
5:50 PM 46.4 °F 43.5 °F 46.4 °F 100% 30.26 in 2.0 mi NE 5.8 mph - N/A Rain Rain Showers
6:50 PM 46.4 °F 43.5 °F 46.4 °F 100% 30.26 in 5.0 mi NE 5.8 mph - N/A   Overcast
7:50 PM 46.4 °F 44.3 °F 46.4 °F 100% 30.26 in 5.0 mi North 4.6 mph - N/A   Overcast
8:50 PM 46.4 °F 44.3 °F 44.6 °F 93% 30.29 in 7.0 mi North 4.6 mph - N/A   Overcast
9:50 PM 46.4 °F 44.3 °F 44.6 °F 93% 30.29 in 7.0 mi North 4.6 mph - N/A   Overcast
10:50 PM 46.4 °F 43.5 °F 44.6 °F 93% 30.29 in 7.0 mi North 5.8 mph - N/A   Overcast
11:50 PM 46.4 °F 42.9 °F 46.4 °F 100% 30.29 in 7.0 mi North 6.9 mph - N/A   Overcast